contact:dominique.lefevre@mio.osupytheas.fr, maurice.libes@osupytheas.fr, didier.mallarino@osupytheas.fr
Project:EMSO http://www.emso-fr.org/EMSO-France
Depth: 2436.0 m
Title:EMSO Ligure Ouest : Data MII capteur AQUADOPP
Date,Latitude,Longitude,X_East,Y_North,Z_Up,Amplitude_X,Amplitude_Y,Amplitude_Z,Batterie,SoundSpeed,Heading,Pitch,Roll,Pressure,TIS,Speed,Direction
, degrees North, degrees East, m.s-1, m.s-1,m.s-1, 1, 1, 1, Volt, m.s-1, degree, degree, degree, dbar, degree_C, m.s-1, degree
2022-08-26T00:04:03,42.805,6.029,-0.004,0.013,0.008,102.0,103.0,101.0,13.3,1505.2,328.8,-0.8,1.8,2470.961,13.29,0.013,342.9
2022-08-26T00:07:03,42.805,6.029,-0.021,0.015,-0.008,102.0,103.0,100.0,13.4,1505.2,328.8,-0.7,1.8,2470.94,13.29,0.025,305.5
2022-08-26T00:10:03,42.805,6.029,0.002,0.014,0.016,102.0,102.0,100.0,13.4,1505.2,330.3,-0.8,1.8,2470.941,13.29,0.014,8.1
2022-08-26T00:13:03,42.805,6.029,0.001,-0.009,-0.015,102.0,103.0,100.0,13.3,1505.2,330.3,-0.8,1.8,2470.917,13.29,0.009,173.7
2022-08-26T00:16:03,42.805,6.029,-0.009,0.011,-0.012,102.0,105.0,100.0,13.4,1505.2,329.0,-0.7,1.8,2470.957,13.29,0.014,320.7
2022-08-26T00:19:03,42.805,6.029,-0.018,0.001,-0.008,101.0,103.0,100.0,13.3,1505.2,323.5,-0.8,1.8,2470.946,13.29,0.018,273.2
2022-08-26T00:22:03,42.805,6.029,-0.002,-0.009,-0.017,102.0,103.0,100.0,13.4,1505.2,322.8,-0.8,1.8,2470.904,13.29,0.009,192.5
2022-08-26T00:25:03,42.805,6.029,-0.007,0.006,-0.025,103.0,102.0,100.0,13.4,1505.2,321.3,-0.8,1.8,2470.904,13.29,0.009,310.6
2022-08-26T00:28:03,42.805,6.029,0.02,0.005,0.0,101.0,101.0,100.0,13.3,1505.2,328.4,-0.7,1.8,2470.866,13.29,0.02,76.0
2022-08-26T00:31:03,42.805,6.029,-0.009,-0.004,-0.007,101.0,103.0,100.0,13.4,1505.2,318.7,-0.7,1.8,2470.902,13.29,0.009,246.0
2022-08-26T00:34:03,42.805,6.029,-0.011,0.007,0.009,102.0,103.0,100.0,13.4,1505.2,325.4,-0.8,1.8,2470.902,13.29,0.013,302.5
2022-08-26T00:37:03,42.805,6.029,-0.002,0.003,-0.001,102.0,103.0,102.0,13.4,1505.2,325.9,-0.8,1.8,2470.928,13.29,0.003,326.3
2022-08-26T00:40:03,42.805,6.029,-0.02,-0.011,-0.049,102.0,103.0,99.0,13.4,1505.2,325.2,-0.8,1.8,2470.886,13.3,0.022,241.2
2022-08-26T00:43:03,42.805,6.029,-0.01,0.015,-0.008,101.0,101.0,102.0,13.4,1505.2,318.1,-0.8,1.8,2470.923,13.3,0.018,326.3
2022-08-26T00:46:03,42.805,6.029,-0.016,0.007,-0.057,101.0,103.0,100.0,13.3,1505.2,318.6,-0.8,1.8,2470.901,13.3,0.017,293.6
2022-08-26T00:49:03,42.805,6.029,-0.002,0.002,-0.027,102.0,101.0,102.0,13.4,1505.2,326.9,-0.7,1.8,2470.93,13.29,0.002,315.0
2022-08-26T00:52:03,42.805,6.029,0.013,-0.006,-0.018,103.0,102.0,99.0,13.3,1505.2,327.3,-0.7,1.8,2470.911,13.29,0.014,114.8
2022-08-26T00:55:03,42.805,6.029,-0.005,-0.003,-0.012,100.0,102.0,101.0,13.3,1505.2,328.1,-0.8,1.8,2470.9,13.29,0.005,239.0
2022-08-26T00:58:03,42.805,6.029,0.0,0.025,-0.007,103.0,102.0,100.0,13.4,1505.2,321.1,-0.8,1.8,2470.931,13.3,0.025,0.0
2022-08-26T01:04:03,42.805,6.029,-0.017,0.009,-0.012,104.0,103.0,100.0,13.4,1505.2,318.0,-0.8,1.8,2470.961,13.29,0.019,297.9
2022-08-26T01:07:03,42.805,6.029,0.013,0.007,0.029,104.0,103.0,103.0,13.3,1505.2,320.9,-0.8,1.9,2470.924,13.29,0.014,61.7
2022-08-26T01:10:03,42.805,6.029,-0.007,-0.002,-0.026,101.0,101.0,100.0,13.4,1505.2,333.9,-0.8,1.8,2470.915,13.29,0.007,254.1
2022-08-26T01:13:03,42.805,6.029,-0.007,-0.006,-0.016,101.0,103.0,99.0,13.3,1505.2,330.2,-0.8,1.8,2470.916,13.29,0.009,229.4
2022-08-26T01:16:03,42.805,6.029,0.003,-0.003,0.0,102.0,103.0,100.0,13.4,1505.2,319.1,-0.8,1.8,2470.924,13.29,0.004,135.0
2022-08-26T01:19:03,42.805,6.029,-0.034,-0.001,-0.038,101.0,103.0,101.0,13.3,1505.2,322.8,-0.8,1.8,2470.926,13.29,0.034,268.3
2022-08-26T01:22:03,42.805,6.029,-0.018,-0.009,-0.027,102.0,100.0,101.0,13.4,1505.2,319.1,-0.7,1.8,2470.899,13.29,0.02,243.4
2022-08-26T01:25:03,42.805,6.029,-0.005,0.012,0.019,101.0,103.0,102.0,13.4,1505.2,326.9,-0.8,1.8,2470.914,13.29,0.013,337.4
2022-08-26T01:28:03,42.805,6.029,-0.001,0.019,0.013,102.0,101.0,101.0,13.4,1505.2,333.9,-0.7,1.8,2470.877,13.29,0.019,357.0
2022-08-26T01:31:03,42.805,6.029,-0.007,0.001,0.009,103.0,103.0,100.0,13.4,1505.2,329.2,-0.7,1.8,2470.902,13.29,0.007,278.1
2022-08-26T01:34:03,42.805,6.029,-0.011,-0.01,-0.022,102.0,102.0,101.0,13.4,1505.2,332.3,-0.7,1.8,2470.895,13.29,0.014,227.7
2022-08-26T01:37:03,42.805,6.029,0.017,0.0,-0.009,102.0,102.0,101.0,13.3,1505.2,322.8,-0.7,1.8,2470.88,13.29,0.017,90.0
2022-08-26T01:40:03,42.805,6.029,-0.011,0.019,-0.013,101.0,103.0,100.0,13.4,1505.2,333.1,-0.7,1.8,2470.885,13.29,0.021,329.9
2022-08-26T01:43:03,42.805,6.029,-0.01,0.002,-0.014,102.0,102.0,99.0,13.4,1505.2,322.3,-0.8,1.8,2470.871,13.29,0.01,281.3
2022-08-26T01:46:03,42.805,6.029,-0.005,0.0,-0.022,101.0,101.0,101.0,13.3,1505.2,318.0,-0.8,1.8,2470.871,13.29,0.005,270.0
2022-08-26T01:49:03,42.805,6.029,-0.027,0.008,-0.021,103.0,102.0,100.0,13.4,1505.2,324.0,-0.8,1.8,2470.85,13.29,0.028,286.5
2022-08-26T01:52:03,42.805,6.029,0.0,0.007,-0.01,100.0,106.0,102.0,13.4,1505.2,328.4,-0.8,1.8,2470.889,13.29,0.007,0.0
2022-08-26T01:55:03,42.805,6.029,0.004,-0.004,-0.003,102.0,101.0,101.0,13.3,1505.2,329.9,-0.7,1.8,2470.871,13.29,0.005,135.0
2022-08-26T01:58:03,42.805,6.029,-0.014,0.0,-0.03,102.0,99.0,100.0,13.4,1505.2,330.3,-0.8,1.8,2470.858,13.29,0.014,270.0
2022-08-26T02:04:03,42.805,6.029,-0.014,0.008,-0.012,101.0,101.0,99.0,13.4,1505.2,325.9,-0.8,1.8,2470.905,13.29,0.016,299.7
2022-08-26T02:07:03,42.805,6.029,-0.011,0.003,-0.017,102.0,101.0,100.0,13.4,1505.2,329.6,-0.8,1.8,2470.894,13.29,0.011,285.3
2022-08-26T02:10:03,42.805,6.029,-0.012,-0.015,-0.026,101.0,101.0,101.0,13.3,1505.2,319.1,-0.7,1.8,2470.916,13.29,0.019,218.7
2022-08-26T02:13:03,42.805,6.029,-0.032,0.006,-0.041,101.0,101.0,100.0,13.4,1505.2,322.3,-0.8,1.8,2470.92,13.29,0.032,280.6
2022-08-26T02:16:03,42.805,6.029,0.011,0.006,-0.027,101.0,102.0,100.0,13.3,1505.2,321.3,-0.7,1.8,2470.921,13.29,0.012,61.4
2022-08-26T02:19:03,42.805,6.029,-0.02,-0.014,-0.058,105.0,103.0,100.0,13.4,1505.2,323.9,-0.8,1.8,2470.915,13.29,0.024,235.0
2022-08-26T02:22:03,42.805,6.029,0.001,0.003,-0.002,101.0,103.0,100.0,13.3,1505.2,332.3,-0.8,1.8,2470.921,13.29,0.003,18.4
2022-08-26T02:25:03,42.805,6.029,0.002,0.011,0.031,102.0,102.0,98.0,13.4,1505.2,323.1,-0.7,1.8,2470.882,13.29,0.011,10.3
2022-08-26T02:28:03,42.805,6.029,-0.032,0.002,-0.046,102.0,100.0,99.0,13.4,1505.2,331.4,-0.8,1.8,2470.914,13.29,0.032,273.6
2022-08-26T02:31:03,42.805,6.029,-0.013,0.009,0.007,101.0,101.0,100.0,13.3,1505.2,324.7,-0.8,1.8,2470.89,13.29,0.015,304.7
2022-08-26T02:34:03,42.805,6.029,-0.033,0.0,0.011,102.0,105.0,100.0,13.3,1505.2,325.3,-0.8,1.8,2470.891,13.29,0.033,270.0
2022-08-26T02:37:03,42.805,6.029,-0.013,0.002,0.002,103.0,100.0,102.0,13.4,1505.2,318.0,-0.7,1.8,2470.904,13.29,0.013,278.7
2022-08-26T02:40:03,42.805,6.029,-0.002,0.0,-0.002,103.0,102.0,100.0,13.4,1505.2,324.1,-0.8,1.8,2470.863,13.29,0.002,270.0
2022-08-26T02:43:03,42.805,6.029,0.001,-0.01,-0.022,102.0,103.0,100.0,13.4,1505.2,321.8,-0.8,1.8,2470.897,13.3,0.01,174.3
2022-08-26T02:46:03,42.805,6.029,-0.036,0.002,0.011,102.0,101.0,100.0,13.4,1505.2,322.1,-0.8,1.8,2470.833,13.29,0.036,273.2
2022-08-26T02:49:03,42.805,6.029,-0.039,0.0,-0.04,102.0,102.0,100.0,13.3,1505.2,322.7,-0.8,1.8,2470.889,13.29,0.039,270.0
2022-08-26T02:52:03,42.805,6.029,0.021,-0.001,-0.019,102.0,103.0,100.0,13.4,1505.2,320.2,-0.8,1.8,2470.887,13.29,0.021,92.7
2022-08-26T02:55:03,42.805,6.029,-0.01,-0.002,-0.034,102.0,101.0,101.0,13.3,1505.2,322.3,-0.8,1.8,2470.865,13.29,0.01,258.7
2022-08-26T02:58:03,42.805,6.029,-0.026,0.0,-0.039,102.0,100.0,100.0,13.3,1505.2,319.4,-0.7,1.8,2470.887,13.29,0.026,270.0
2022-08-26T03:04:03,42.805,6.029,-0.003,0.001,-0.043,99.0,104.0,104.0,13.4,1505.2,318.0,-0.8,1.8,2470.931,13.29,0.003,288.4
2022-08-26T03:07:03,42.805,6.029,0.01,0.0,-0.045,100.0,102.0,101.0,13.4,1505.2,330.1,-0.8,1.8,2470.901,13.29,0.01,90.0
2022-08-26T03:10:03,42.805,6.029,0.003,-0.028,-0.026,101.0,101.0,101.0,13.4,1505.2,328.5,-0.7,1.8,2470.886,13.29,0.028,173.9
2022-08-26T03:13:03,42.805,6.029,-0.001,0.001,-0.023,102.0,102.0,101.0,13.4,1505.2,330.3,-0.7,1.8,2470.914,13.29,0.001,315.0
2022-08-26T03:16:03,42.805,6.029,0.0,-0.005,-0.035,102.0,100.0,101.0,13.3,1505.2,329.5,-0.7,1.8,2470.897,13.29,0.005,180.0
2022-08-26T03:19:03,42.805,6.029,0.004,0.0,-0.045,101.0,101.0,101.0,13.3,1505.2,326.3,-0.7,1.8,2470.854,13.29,0.004,90.0
2022-08-26T03:22:03,42.805,6.029,-0.004,-0.007,-0.02,101.0,101.0,100.0,13.4,1505.2,321.2,-0.7,1.8,2470.864,13.29,0.008,209.7
2022-08-26T03:25:03,42.805,6.029,-0.009,-0.002,-0.01,101.0,101.0,99.0,13.4,1505.2,321.3,-0.8,1.8,2470.91,13.29,0.009,257.5
2022-08-26T03:28:03,42.805,6.029,-0.005,0.0,-0.032,102.0,101.0,101.0,13.4,1505.2,327.2,-0.7,1.8,2470.906,13.3,0.005,270.0
2022-08-26T03:31:03,42.805,6.029,-0.005,-0.003,-0.002,100.0,101.0,101.0,13.4,1505.2,319.4,-0.8,1.8,2470.918,13.3,0.005,239.0
2022-08-26T03:34:03,42.805,6.029,-0.018,0.02,-0.023,102.0,100.0,100.0,13.4,1505.2,319.5,-0.8,1.8,2470.887,13.3,0.026,318.0
2022-08-26T03:37:03,42.805,6.029,-0.025,0.023,0.017,101.0,101.0,100.0,13.4,1505.2,324.7,-0.8,1.8,2470.906,13.3,0.033,312.6
2022-08-26T03:40:03,42.805,6.029,-0.03,0.0,-0.035,101.0,102.0,101.0,13.4,1505.2,324.9,-0.8,1.8,2470.892,13.3,0.03,270.0
2022-08-26T03:43:03,42.805,6.029,0.007,0.01,-0.028,103.0,101.0,100.0,13.4,1505.2,327.0,-0.8,1.8,2470.928,13.29,0.012,35.0
2022-08-26T03:46:03,42.805,6.029,0.015,-0.007,-0.016,103.0,103.0,101.0,13.4,1505.2,332.3,-0.7,1.8,2470.859,13.29,0.016,115.0
2022-08-26T03:49:03,42.805,6.029,0.006,0.018,0.011,101.0,103.0,100.0,13.4,1505.2,328.5,-0.8,1.8,2470.908,13.29,0.018,18.4
2022-08-26T03:52:03,42.805,6.029,-0.023,0.016,-0.001,101.0,102.0,100.0,13.3,1505.2,327.3,-0.8,1.8,2470.904,13.3,0.028,304.8
2022-08-26T03:55:03,42.805,6.029,-0.005,-0.001,-0.016,102.0,102.0,100.0,13.3,1505.2,327.6,-0.7,1.8,2470.887,13.3,0.005,258.7
2022-08-26T03:58:03,42.805,6.029,-0.006,-0.018,-0.024,101.0,101.0,100.0,13.4,1505.2,319.1,-0.7,1.8,2470.921,13.3,0.018,198.4
2022-08-26T04:04:03,42.805,6.029,0.011,-0.022,-0.047,101.0,101.0,101.0,13.4,1505.2,332.3,-0.7,1.8,2470.935,13.29,0.024,153.4
2022-08-26T04:07:03,42.805,6.029,-0.007,0.006,0.001,101.0,102.0,100.0,13.3,1505.2,324.8,-0.8,1.8,2470.942,13.29,0.009,310.6
2022-08-26T04:10:03,42.805,6.029,0.017,-0.018,-0.039,102.0,102.0,100.0,13.3,1505.2,330.0,-0.8,1.8,2470.953,13.29,0.024,136.6
2022-08-26T04:13:03,42.805,6.029,-0.004,-0.01,-0.019,100.0,102.0,101.0,13.3,1505.2,326.9,-0.8,1.8,2470.948,13.29,0.01,201.8
2022-08-26T04:16:03,42.805,6.029,-0.001,0.011,0.0,103.0,101.0,101.0,13.4,1505.2,327.0,-0.8,1.8,2470.959,13.29,0.011,354.8
2022-08-26T04:19:03,42.805,6.029,0.014,0.011,0.005,100.0,103.0,100.0,13.3,1505.2,323.6,-0.8,1.8,2470.983,13.29,0.017,51.8
2022-08-26T04:22:03,42.805,6.029,-0.04,0.006,-0.021,102.0,101.0,100.0,13.4,1505.2,318.1,-0.7,1.8,2470.906,13.3,0.04,278.5
2022-08-26T04:25:03,42.805,6.029,-0.024,-0.013,-0.01,101.0,101.0,101.0,13.3,1505.2,322.8,-0.8,1.8,2470.942,13.29,0.027,241.6
2022-08-26T04:28:03,42.805,6.029,-0.013,-0.005,-0.008,102.0,100.0,100.0,13.4,1505.2,327.9,-0.8,1.8,2470.933,13.3,0.013,249.0
2022-08-26T04:31:03,42.805,6.029,0.002,-0.001,-0.048,104.0,101.0,101.0,13.4,1505.2,321.8,-0.7,1.8,2470.906,13.29,0.002,116.6
2022-08-26T04:34:03,42.805,6.029,-0.007,0.01,-0.034,101.0,102.0,99.0,13.3,1505.2,319.9,-0.8,1.8,2470.893,13.29,0.012,325.0
2022-08-26T04:37:03,42.805,6.029,-0.001,-0.015,-0.045,101.0,102.0,99.0,13.4,1505.2,327.0,-0.7,1.8,2470.924,13.29,0.015,183.8
2022-08-26T04:40:03,42.805,6.029,-0.026,0.004,-0.023,102.0,103.0,99.0,13.4,1505.2,322.5,-0.8,1.8,2470.912,13.3,0.026,278.7
2022-08-26T04:43:03,42.805,6.029,-0.016,-0.001,-0.035,102.0,101.0,101.0,13.3,1505.2,322.4,-0.8,1.8,2470.923,13.3,0.016,266.4
2022-08-26T04:46:03,42.805,6.029,-0.013,0.008,-0.01,103.0,102.0,100.0,13.4,1505.2,322.4,-0.7,1.8,2470.931,13.3,0.015,301.6
2022-08-26T04:49:03,42.805,6.029,-0.034,-0.004,-0.026,102.0,102.0,100.0,13.3,1505.2,322.4,-0.7,1.8,2470.983,13.3,0.034,263.3
2022-08-26T04:52:03,42.805,6.029,-0.004,0.005,-0.018,102.0,103.0,100.0,13.3,1505.2,323.1,-0.8,1.8,2470.922,13.3,0.006,321.3
2022-08-26T04:55:03,42.805,6.029,-0.026,0.022,-0.028,101.0,102.0,100.0,13.3,1505.2,322.1,-0.8,1.8,2470.892,13.3,0.034,310.2
2022-08-26T04:58:03,42.805,6.029,-0.007,0.008,-0.03,101.0,102.0,100.0,13.4,1505.2,325.5,-0.8,1.8,2470.961,13.3,0.01,318.8
2022-08-26T05:04:03,42.805,6.029,0.007,-0.001,0.004,102.0,101.0,101.0,13.4,1505.2,323.8,-0.8,1.8,2470.968,13.29,0.007,98.1
2022-08-26T05:07:03,42.805,6.029,0.001,-0.005,0.018,101.0,102.0,99.0,13.3,1505.2,316.9,-0.8,1.8,2470.983,13.29,0.005,168.7
2022-08-26T05:10:03,42.805,6.029,0.003,-0.006,-0.027,102.0,101.0,100.0,13.3,1505.2,321.7,-0.7,1.8,2470.977,13.29,0.006,153.4
2022-08-26T05:13:03,42.805,6.029,-0.008,0.017,-0.015,103.0,101.0,100.0,13.3,1505.2,322.2,-0.8,1.8,2470.976,13.29,0.018,334.8
2022-08-26T05:16:03,42.805,6.029,0.0,-0.011,-0.027,101.0,103.0,100.0,13.4,1505.2,326.1,-0.7,1.8,2470.98,13.3,0.011,180.0
2022-08-26T05:19:03,42.805,6.029,-0.016,-0.002,-0.018,105.0,101.0,100.0,13.4,1505.2,323.6,-0.7,1.8,2470.969,13.3,0.016,262.9
2022-08-26T05:22:03,42.805,6.029,0.008,0.022,-0.008,104.0,101.0,101.0,13.3,1505.2,333.6,-0.7,1.8,2470.975,13.29,0.023,20.0
2022-08-26T05:25:03,42.805,6.029,-0.016,-0.002,-0.023,102.0,102.0,100.0,13.3,1505.2,322.4,-0.8,1.8,2470.966,13.3,0.016,262.9
2022-08-26T05:28:03,42.805,6.029,-0.008,0.008,-0.017,103.0,99.0,100.0,13.4,1505.2,327.9,-0.7,1.8,2470.948,13.3,0.011,315.0
2022-08-26T05:31:03,42.805,6.029,-0.007,0.012,-0.033,100.0,102.0,100.0,13.4,1505.2,326.4,-0.8,1.8,2470.993,13.29,0.013,329.7
2022-08-26T05:34:03,42.805,6.029,0.004,0.003,-0.013,101.0,101.0,100.0,13.4,1505.2,325.7,-0.7,1.9,2470.972,13.29,0.005,53.1
2022-08-26T05:37:03,42.805,6.029,-0.019,0.009,-0.041,101.0,102.0,101.0,13.4,1505.2,329.4,-0.7,1.8,2470.951,13.29,0.021,295.3
2022-08-26T05:40:03,42.805,6.029,-0.007,0.004,-0.049,102.0,101.0,101.0,13.3,1505.2,322.7,-0.8,1.8,2470.984,13.29,0.008,299.7
2022-08-26T05:43:03,42.805,6.029,-0.005,-0.004,-0.024,101.0,102.0,102.0,13.4,1505.2,332.2,-0.7,1.8,2471.0,13.29,0.006,231.3
2022-08-26T05:46:03,42.805,6.029,0.003,0.007,-0.001,104.0,104.0,100.0,13.4,1505.2,328.1,-0.8,1.8,2470.979,13.29,0.007,23.2
2022-08-26T05:49:03,42.805,6.029,-0.026,0.011,-0.024,103.0,102.0,102.0,13.4,1505.2,332.0,-0.8,1.8,2470.964,13.29,0.028,292.9
2022-08-26T05:52:03,42.805,6.029,-0.016,-0.016,-0.048,103.0,101.0,100.0,13.4,1505.2,323.7,-0.8,1.8,2470.996,13.29,0.022,225.0
2022-08-26T05:55:03,42.805,6.029,0.005,-0.005,0.001,101.0,105.0,101.0,13.4,1505.2,327.8,-0.7,1.8,2470.984,13.29,0.007,135.0
2022-08-26T05:58:03,42.805,6.029,-0.006,0.027,-0.002,105.0,101.0,100.0,13.3,1505.2,326.9,-0.8,1.8,2470.943,13.29,0.027,347.5
2022-08-26T06:04:03,42.805,6.029,-0.003,0.005,-0.03,103.0,102.0,102.0,13.4,1505.2,333.1,-0.8,1.8,2471.011,13.29,0.005,329.0
2022-08-26T06:07:03,42.805,6.029,-0.018,0.007,-0.013,102.0,102.0,101.0,13.3,1505.2,329.6,-0.8,1.8,2471.016,13.29,0.019,291.2
2022-08-26T06:10:03,42.805,6.029,-0.011,-0.009,-0.036,103.0,101.0,100.0,13.4,1505.2,327.5,-0.8,1.8,2471.04,13.29,0.014,230.7
2022-08-26T06:13:03,42.805,6.029,-0.026,0.006,-0.028,102.0,104.0,100.0,13.3,1505.2,328.8,-0.7,1.8,2470.993,13.29,0.026,283.0
2022-08-26T06:16:03,42.805,6.029,-0.011,0.006,-0.012,102.0,103.0,100.0,13.3,1505.2,324.5,-0.7,1.8,2470.993,13.29,0.012,298.6
2022-08-26T06:19:03,42.805,6.029,-0.021,0.019,0.015,101.0,102.0,101.0,13.3,1505.2,328.1,-0.8,1.8,2471.05,13.29,0.028,312.1
2022-08-26T06:22:03,42.805,6.029,-0.008,-0.011,-0.007,102.0,101.0,101.0,13.3,1505.2,319.0,-0.8,1.8,2470.982,13.29,0.013,216.0
2022-08-26T06:25:03,42.805,6.029,0.002,0.01,-0.026,102.0,101.0,100.0,13.4,1505.2,318.9,-0.8,1.9,2470.982,13.29,0.01,11.3
2022-08-26T06:28:03,42.805,6.029,0.0,0.003,-0.024,102.0,103.0,101.0,13.4,1505.2,333.7,-0.8,1.8,2471.017,13.29,0.003,0.0
2022-08-26T06:31:03,42.805,6.029,-0.032,0.016,-0.031,102.0,101.0,100.0,13.3,1505.2,324.1,-0.8,1.8,2471.01,13.29,0.035,296.6
2022-08-26T06:34:03,42.805,6.029,0.02,-0.023,-0.043,101.0,102.0,100.0,13.4,1505.2,333.7,-0.8,1.8,2471.018,13.29,0.03,139.0
2022-08-26T06:37:03,42.805,6.029,-0.02,0.015,-0.031,105.0,102.0,100.0,13.3,1505.2,319.9,-0.8,1.8,2471.004,13.29,0.025,306.9
2022-08-26T06:40:04,42.805,6.029,-0.013,-0.013,-0.003,102.0,102.0,100.0,13.4,1505.2,330.8,-0.7,1.8,2470.979,13.29,0.018,225.0
2022-08-26T06:43:03,42.805,6.029,-0.021,-0.007,-0.013,102.0,102.0,99.0,13.3,1505.2,331.3,-0.7,1.8,2470.981,13.29,0.022,251.6
2022-08-26T06:46:03,42.805,6.029,0.0,0.011,-0.014,102.0,102.0,100.0,13.4,1505.2,330.3,-0.7,1.9,2471.025,13.29,0.011,0.0
2022-08-26T06:49:03,42.805,6.029,-0.026,0.011,-0.068,104.0,101.0,101.0,13.3,1505.2,333.7,-0.8,1.8,2470.964,13.29,0.028,292.9
2022-08-26T06:52:03,42.805,6.029,0.008,0.015,-0.027,102.0,101.0,101.0,13.4,1505.2,333.4,-0.7,1.8,2470.966,13.29,0.017,28.1
2022-08-26T06:55:03,42.805,6.029,-0.02,0.004,-0.008,103.0,107.0,100.0,13.4,1505.2,322.1,-0.8,1.8,2470.993,13.29,0.02,281.3
2022-08-26T06:58:03,42.805,6.029,-0.002,0.003,0.0,102.0,101.0,100.0,13.3,1505.2,327.4,-0.8,1.8,2471.006,13.29,0.003,326.3
2022-08-26T07:04:03,42.805,6.029,0.012,-0.025,-0.058,101.0,102.0,102.0,13.4,1505.2,328.4,-0.8,1.8,2471.054,13.29,0.027,154.4
2022-08-26T07:07:03,42.805,6.029,-0.014,-0.013,-0.032,102.0,101.0,102.0,13.3,1505.2,324.9,-0.7,1.8,2471.035,13.29,0.019,227.1
2022-08-26T07:10:03,42.805,6.029,-0.012,0.013,0.022,101.0,102.0,101.0,13.3,1505.2,328.9,-0.8,1.8,2471.035,13.29,0.017,317.3
2022-08-26T07:13:03,42.805,6.029,-0.011,-0.006,-0.026,102.0,102.0,101.0,13.3,1505.2,326.6,-0.8,1.8,2471.046,13.29,0.012,241.4
2022-08-26T07:16:03,42.805,6.029,0.0,0.02,-0.003,102.0,102.0,100.0,13.4,1505.2,327.8,-0.8,1.8,2471.051,13.29,0.02,0.0
2022-08-26T07:19:03,42.805,6.029,-0.019,0.018,0.003,102.0,101.0,101.0,13.4,1505.2,327.3,-0.7,1.8,2471.033,13.29,0.026,313.5
2022-08-26T07:22:03,42.805,6.029,0.002,0.008,0.012,104.0,102.0,100.0,13.4,1505.2,328.9,-0.8,1.8,2471.008,13.29,0.008,14.0
2022-08-26T07:25:03,42.805,6.029,-0.027,-0.008,-0.015,104.0,101.0,101.0,13.4,1505.2,330.6,-0.7,1.8,2471.02,13.29,0.028,253.5
2022-08-26T07:28:03,42.805,6.029,-0.018,0.012,-0.028,102.0,102.0,101.0,13.4,1505.2,332.2,-0.8,1.9,2470.962,13.29,0.021,303.7
2022-08-26T07:31:03,42.805,6.029,0.0,0.004,-0.006,101.0,102.0,100.0,13.3,1505.2,322.8,-0.8,1.8,2470.961,13.29,0.004,0.0
2022-08-26T07:34:03,42.805,6.029,0.0,-0.009,-0.024,102.0,109.0,100.0,13.3,1505.2,319.7,-0.7,1.8,2471.015,13.29,0.009,180.0
2022-08-26T07:37:03,42.805,6.029,-0.023,0.007,0.01,104.0,101.0,101.0,13.4,1505.2,332.2,-0.8,1.8,2471.006,13.29,0.024,286.9
2022-08-26T07:40:03,42.805,6.029,-0.01,-0.003,-0.015,103.0,102.0,101.0,13.3,1505.2,322.0,-0.8,1.8,2471.003,13.29,0.01,253.3
2022-08-26T07:43:03,42.805,6.029,0.001,0.01,0.0,103.0,102.0,101.0,13.4,1505.2,330.6,-0.8,1.8,2470.962,13.29,0.01,5.7
2022-08-26T07:46:03,42.805,6.029,-0.015,0.011,-0.034,104.0,102.0,101.0,13.4,1505.2,328.4,-0.8,1.8,2470.961,13.29,0.018,306.3
2022-08-26T07:49:03,42.805,6.029,0.012,-0.002,-0.016,103.0,102.0,102.0,13.4,1505.2,333.1,-0.8,1.8,2471.003,13.29,0.012,99.5
2022-08-26T07:52:03,42.805,6.029,-0.007,0.002,-0.02,102.0,102.0,103.0,13.4,1505.2,319.4,-0.8,1.8,2470.966,13.29,0.007,285.9
2022-08-26T07:55:03,42.805,6.029,-0.01,0.016,-0.026,102.0,101.0,102.0,13.3,1505.2,326.4,-0.8,1.8,2470.984,13.29,0.018,328.0
2022-08-26T07:58:03,42.805,6.029,-0.02,0.017,-0.006,103.0,102.0,101.0,13.3,1505.2,324.6,-0.8,1.8,2470.974,13.29,0.026,310.4
2022-08-26T08:04:03,42.805,6.029,0.007,0.019,0.0,102.0,103.0,101.0,13.4,1505.2,330.2,-0.8,1.8,2471.016,13.29,0.02,20.2
2022-08-26T08:07:03,42.805,6.029,-0.01,0.004,-0.007,101.0,101.0,100.0,13.3,1505.2,326.1,-0.8,1.8,2471.026,13.29,0.01,291.8
2022-08-26T08:10:03,42.805,6.029,0.015,-0.017,-0.023,102.0,101.0,102.0,13.3,1505.2,326.8,-0.8,1.8,2471.021,13.29,0.022,138.6
2022-08-26T08:13:03,42.805,6.029,-0.019,0.007,-0.06,101.0,102.0,100.0,13.4,1505.2,317.7,-0.8,1.8,2471.011,13.29,0.02,290.2
2022-08-26T08:16:03,42.805,6.029,0.001,0.026,-0.008,101.0,102.0,100.0,13.3,1505.2,321.6,-0.7,1.8,2471.029,13.29,0.026,2.2
2022-08-26T08:19:03,42.805,6.029,-0.025,-0.003,-0.013,101.0,104.0,100.0,13.3,1505.2,333.7,-0.7,1.8,2470.967,13.29,0.025,263.2
2022-08-26T08:22:03,42.805,6.029,0.0,0.014,-0.018,103.0,100.0,101.0,13.3,1505.2,331.4,-0.7,1.8,2470.99,13.29,0.014,0.0
2022-08-26T08:25:03,42.805,6.029,-0.023,-0.012,-0.052,101.0,103.0,100.0,13.4,1505.2,326.6,-0.8,1.8,2470.996,13.29,0.025,242.4
2022-08-26T08:28:03,42.805,6.029,-0.01,0.005,-0.001,102.0,102.0,101.0,13.4,1505.2,323.7,-0.7,1.8,2470.965,13.29,0.011,296.6
2022-08-26T08:31:03,42.805,6.029,-0.019,0.001,-0.024,102.0,102.0,101.0,13.3,1505.2,320.1,-0.7,1.8,2470.985,13.29,0.019,273.0
2022-08-26T08:34:03,42.805,6.029,0.003,0.006,0.012,104.0,103.0,101.0,13.4,1505.2,327.2,-0.7,1.8,2470.978,13.29,0.006,26.6
2022-08-26T08:37:03,42.805,6.029,-0.019,0.032,-0.019,102.0,102.0,101.0,13.3,1505.2,332.9,-0.7,1.8,2470.953,13.29,0.037,329.3
2022-08-26T08:40:03,42.805,6.029,-0.024,-0.006,-0.045,103.0,100.0,100.0,13.4,1505.2,318.7,-0.8,1.8,2470.967,13.29,0.024,256.0
2022-08-26T08:43:03,42.805,6.029,-0.008,0.001,-0.026,101.0,101.0,102.0,13.4,1505.2,326.8,-0.7,1.8,2470.921,13.29,0.008,277.1
2022-08-26T08:46:03,42.805,6.029,-0.008,0.001,-0.011,105.0,102.0,101.0,13.4,1505.2,333.1,-0.8,1.8,2470.964,13.29,0.008,277.1
2022-08-26T08:49:03,42.805,6.029,-0.028,-0.002,-0.026,102.0,102.0,100.0,13.4,1505.2,329.5,-0.8,1.9,2470.946,13.29,0.028,265.9
2022-08-26T08:52:03,42.805,6.029,-0.001,0.005,-0.007,100.0,103.0,102.0,13.4,1505.2,324.0,-0.8,1.8,2470.961,13.29,0.005,348.7
2022-08-26T08:55:03,42.805,6.029,-0.007,0.008,-0.008,103.0,102.0,101.0,13.3,1505.2,324.7,-0.7,1.8,2470.962,13.29,0.01,318.8
2022-08-26T08:58:03,42.805,6.029,-0.006,-0.01,-0.044,102.0,102.0,101.0,13.4,1505.2,319.6,-0.7,1.9,2470.98,13.29,0.011,211.0
2022-08-26T09:04:03,42.805,6.029,-0.006,0.016,-0.013,103.0,102.0,101.0,13.3,1505.2,329.2,-0.8,1.8,2471.015,13.29,0.017,339.4
2022-08-26T09:07:03,42.805,6.029,-0.005,0.006,-0.01,103.0,102.0,101.0,13.4,1505.2,326.3,-0.8,1.8,2470.994,13.29,0.007,320.2
2022-08-26T09:10:03,42.805,6.029,-0.023,0.009,-0.009,101.0,103.0,100.0,13.4,1505.2,327.6,-0.8,1.9,2470.997,13.29,0.024,291.4
2022-08-26T09:13:03,42.805,6.029,-0.014,-0.01,-0.016,104.0,100.0,100.0,13.3,1505.2,328.0,-0.8,1.8,2470.962,13.29,0.017,234.5
2022-08-26T09:16:03,42.805,6.029,-0.001,-0.005,0.012,104.0,101.0,101.0,13.4,1505.2,331.2,-0.8,1.8,2470.954,13.29,0.005,191.3
2022-08-26T09:19:03,42.805,6.029,-0.007,0.013,0.005,103.0,103.0,101.0,13.4,1505.2,333.6,-0.8,1.8,2470.958,13.29,0.014,331.7
2022-08-26T09:22:03,42.805,6.029,-0.013,0.005,-0.021,102.0,103.0,101.0,13.4,1505.2,327.5,-0.7,1.8,2470.948,13.29,0.013,291.0
2022-08-26T09:25:03,42.805,6.029,-0.019,0.002,0.004,103.0,104.0,101.0,13.4,1505.2,321.6,-0.8,1.8,2470.969,13.29,0.019,276.0
2022-08-26T09:28:03,42.805,6.029,-0.032,0.019,0.004,103.0,101.0,101.0,13.4,1505.2,329.0,-0.7,1.8,2470.967,13.29,0.037,300.7
2022-08-26T09:31:03,42.805,6.029,-0.004,0.01,-0.027,102.0,102.0,101.0,13.3,1505.2,329.3,-0.7,1.8,2470.947,13.29,0.01,338.2
2022-08-26T09:34:03,42.805,6.029,-0.002,0.007,-0.041,104.0,103.0,100.0,13.3,1505.2,328.2,-0.8,1.8,2470.883,13.29,0.007,344.1
2022-08-26T09:37:03,42.805,6.029,-0.012,-0.006,-0.023,102.0,102.0,101.0,13.4,1505.2,324.9,-0.8,1.8,2470.953,13.29,0.013,243.4
2022-08-26T09:40:03,42.805,6.029,-0.016,0.012,-0.004,103.0,102.0,101.0,13.3,1505.2,327.5,-0.7,1.8,2470.912,13.29,0.02,306.9
2022-08-26T09:43:03,42.805,6.029,0.007,-0.005,-0.032,102.0,102.0,101.0,13.3,1505.2,333.4,-0.8,1.8,2470.946,13.29,0.008,125.5
2022-08-26T09:46:03,42.805,6.029,-0.017,0.01,0.012,102.0,103.0,101.0,13.3,1505.2,327.5,-0.7,1.8,2470.925,13.29,0.019,300.5
2022-08-26T09:49:03,42.805,6.029,0.011,-0.002,-0.004,104.0,102.0,102.0,13.3,1505.2,325.5,-0.8,1.8,2470.945,13.29,0.011,100.3
2022-08-26T09:52:03,42.805,6.029,-0.028,0.002,-0.011,102.0,103.0,100.0,13.3,1505.2,319.7,-0.8,1.8,2470.916,13.29,0.028,274.1
2022-08-26T09:55:03,42.805,6.029,-0.023,0.011,0.007,101.0,103.0,101.0,13.4,1505.2,319.1,-0.8,1.8,2470.939,13.29,0.025,295.6